Regional Weather Roundup
Issued by NWS

Home | Current Version | Previous Version | Text Only | Print | Product List | Glossary Off
Versions: 1 2 3 4 5 6 7 8 9 10 11 12 13 14 15 16 17 18 19 20 21 22 23 24 25 26 27 28 29 30 31 32 33 34 35 36 37 38 39 40 41 42 43 44 45 46 47 48 49 50

013
ASUS43 KDTX 190410
RWRMI
MICHIGAN HOURLY REGIONAL WEATHER ROUNDUP
NATIONAL WEATHER SERVICE DETROIT/PONTIAC MI
ISSUED BY NATIONAL WEATHER SERVICE GRAND RAPIDS MI
1100 PM EST WED JAN 18 2017

NOTE: "FAIR" INDICATES FEW OR NO CLOUDS BELOW 12,000 FEET WITH NO
SIGNIFICANT WEATHER AND/OR OBSTRUCTION TO VISIBILITY.

MIZ047>049-052>055-059>063-066>070-074>076-081>083-190500-
SOUTHEAST LOWER MICHIGAN

CITY           SKY/WX    TMP DP  RH WIND       PRES   REMARKS
ADRIAN         CLOUDY    33  32  96 W8        30.09F WCI  26
ALMA           CLOUDY    34  32  92 W12G18    30.02F WCI  25
ANN ARBOR      CLOUDY    34  32  92 S12       30.07R WCI  25
BAD AXE        CLOUDY    34  34 100 W12G18    29.99R WCI  25
DETROIT CITY   CLOUDY    36  34  93 W9        30.05  WCI  29
DETROIT        CLOUDY    36  33  89 SW14      30.08R WCI  27
FLINT          CLOUDY    34  32  92 W8        30.03F WCI  27
GROSSE ILE     CLOUDY    35  33  92 W12       30.08R WCI  26
HILLSDALE      CLOUDY    32  32 100 SW7       30.06F FOG     WCI  26
HOWELL         CLOUDY    34  32  94 SW12      30.03F WCI  25

CITY           SKY/WX    TMP DP  RH WIND       PRES   REMARKS
JACKSON        CLOUDY    32  31  96 SW15      30.06S WCI  22
LANSING        CLOUDY    34  30  85 SW14      30.05S WCI  25
MASON          CLOUDY    33  32  96 SW9       30.05S FOG     WCI  25
MONROE         CLOUDY    34  34  98 SW16      30.09R WCI  24
MT. CLEMENS    CLOUDY    36  33  91 SW12      30.02F WCI  28
PONTIAC        CLOUDY    34  31  88 SW8       30.01F WCI  27
PORT HOPE        N/A     35  33  92 W12G21    29.95R WCI  27
PORT HURON     CLOUDY    36  34  93 SW5       30.03S WCI  32
TRI CITIES     CLOUDY    34  32  92 SW14      30.01F WCI  25
YPSILANTI      CLOUDY    35  33  92 SW15      30.08R WCI  25
$$
MIZ043>046-050>051-056>058-064>065-071>073-077>080-190500-
SOUTHWEST LOWER MICHIGAN

CITY           SKY/WX    TMP DP  RH WIND       PRES   REMARKS
BATTLE CREEK   CLOUDY    33  32  96 SW12      30.06F WCI  24
BENTON HARBOR  CLOUDY    37  32  82 SW9       30.06F WCI  30
BIG RAPIDS     CLOUDY    34  31  91 W12       29.98F WCI  25
COLDWATER      CLOUDY    33  33 100 SW8       30.07F FOG     WCI  26
HOLLAND        CLOUDY    36  32  85 SW16      30.04F WCI  26
GRAND RAPIDS   CLOUDY    34  30  85 SW14      30.04S WCI  25
KALAMAZOO      CLOUDY    35  30  82 SW10      30.06F WCI  27
MARSHALL       CLOUDY    33  32  98 SW9       30.06S WCI  25
MOUNT PLEASANT CLOUDY    34  32  91 SW14      30.00F WCI  25
MUSKEGON       CLOUDY    37  34  89 S13       30.03S WCI  29
STURGIS        CLOUDY    33  32  96 SW6       30.06F WCI  28
$$
MIZ016>042-190500-
NORTHERN LOWER MICHIGAN

CITY           SKY/WX    TMP DP  RH WIND       PRES   REMARKS
ALPENA         CLOUDY    35  31  85 CALM      29.95R
BEAVER ISLAND  CLEAR     37  34  92 SW12G20   29.91S WCI  29
BELLAIRE       CLOUDY    35  32  90 SW7       29.95F WCI  29
CADILLAC       CLOUDY    32  31  96 SW10      29.94S WCI  24
CHARLEVOIX     CLOUDY    35  33  94 S9        29.96R WCI  27
GAYLORD        CLOUDY    35  29  78 W12       29.91S WCI  27
HOUGHTON LAKE  CLOUDY    33  30  88 SW14      29.95F WCI  23
MANISTEE       CLOUDY    35  32  88 SW7       29.98S WCI  29
OSCODA         CLOUDY    36  33  89 W7        29.95R WCI  30
PELLSTON       CLOUDY    36  31  82 SW8       29.92S WCI  30
TRAVERSE CITY  CLOUDY    36  31  82 VRB7      29.95S WCI  30
LUDINGTON      CLOUDY    34  33  96 SW12      29.99S FOG     WCI  26
$$
MIZ007>008-015-190500-
EASTERN UPPER MICHIGAN

CITY           SKY/WX    TMP DP  RH WIND       PRES   REMARKS
KINROSS        CLOUDY    35  33  92 SW7       29.90R WCI  29
MACKINAC ISLAN CLOUDY    33  33 100 W9G18     29.91S FOG     WCI  26
NEWBERRY       MOCLDY    31  31  97 S7        29.87F WCI  25
S. S. MARIE    CLOUDY    35  32  88 SW8       29.89S WCI  29
$$
MIZ004>006-011>014-085-190500-
CENTRAL UPPER MICHIGAN

CITY           SKY/WX    TMP DP  RH WIND       PRES   REMARKS
MANISTIQUE     CLOUDY    31  30  97 S6        29.88S FOG     WCI  25
ESCANABA       PTCLDY    31  30  96 SW3       29.89R
SAWYER-GWINN   FOG       27  26  98 CALM      29.85R VSB 1/2
$$
MIZ001>003-009>011-084-190500-
WESTERN UPPER MICHIGAN

CITY           SKY/WX    TMP DP  RH WIND       PRES   REMARKS
IRON MOUNTAIN  CLOUDY    26  23  88 SE5       29.85R WCI  20
HOUGHTON       CLOUDY    28  24  85 W3        29.81S
COPPER HARBOR    N/A     31  28  89 SW6       29.83S WCI  25
IRONWOOD       CLOUDY    34  28  79 SW5       29.83R WCI  30
$$

ABBREVIATIONS USED IN REMARKS
   TC - TEMPERATURE IN CELSIUS
  WCI - WIND CHILL INDEX
   HX - HEAT INDEX
  VSB - VISIBILITY





USA.gov is the U.S. government's official web portal to all federal, state and local government web resources and services.